Clayton Lake, ME

7:34 PM EDT on June 26, 2017 (GMT -0400)
Clayton Lake

Weather History for K40B - January, 2013

Change the Weather History Date:

Monday, January 7, 2013

  Actual Average Record
Temperature  
Mean Temperature -4 °F -  
Max Temperature 10 °F 18 °F 31 °F (2012)
Min Temperature -16 °F -1 °F -21 °F (2017)
Degree Days  
Heating Degree Days 68    
Moisture  
Dew Point -7 °F    
Average Humidity 78    
Maximum Humidity 89    
Minimum Humidity 56    
Precipitation  
Precipitation 0.37 in - - ()
Sea Level Pressure  
Sea Level Pressure 30.32 in    
Wind  
Wind Speed 1 mph (North)    
Max Wind Speed 5 mph    
Max Gust Speed -    
Averages and records for this station are not official NWS values.
T = Trace of Precipitation, MM = Missing Value Source: NWS Daily Summary

Daily Weather History Graph

Daily Weather History Graph

Search for Another Location

Airport or City:

Trip Planner

Search our weather history database for the weather conditions in past years. The results will help you decide how hot, cold, wet, or windy it might be!

Date:

Astronomy

Jan. 07, 2013 Rise Set
Actual Time 7:21 AM EST 4:07 PM EST
Civil Twilight 6:47 AM EST 4:42 PM EST
Nautical Twilight 6:09 AM EST 5:20 PM EST
Astronomical Twilight 5:32 AM EST 5:56 PM EST
Moon 2:37 AM EST (1/7) 12:19 PM EST (1/7)
Length of Visible Light 9h 55m
Length of Day
8h 46m
Waning Crescent, 23% of the Moon is Illuminated
Jan 7
Waning Crescent
Jan 11
New
Jan 18
First Quarter
Jan 26
Full
Feb 3
Last Quarter

Hourly Weather History & Observations

Time (EST) Temp. Windchill Dew Point Humidity Pressure Visibility Wind Dir Wind Speed Gust Speed Precip Events Conditions
12:25 AM 6.8 °F - 3.6 °F 87% 30.09 in - Variable 2.3 mph - N/A   Unknown
1:25 AM 4.8 °F - 1.8 °F 87% 30.12 in - Variable 2.3 mph - 0.00 in   Unknown
2:25 AM 3.9 °F - 0.7 °F 86% 30.15 in - Calm Calm - N/A   Unknown
3:25 AM 2.8 °F - -1.5 °F 82% 30.18 in - Calm Calm - 0.04 in   Unknown
4:25 AM 0.9 °F - -3.1 °F 83% 30.20 in - Calm Calm - 0.02 in   Unknown
5:25 AM -0.2 °F - -4.2 °F 83% 30.24 in - Calm Calm - N/A   Unknown
6:25 AM -5.4 °F - -8.9 °F 85% 30.28 in - Calm Calm - 0.02 in   Unknown
7:25 AM -7.6 °F - -11.0 °F 85% 30.32 in - Calm Calm - 0.02 in   Unknown
8:25 AM -4.7 °F - -8.3 °F 84% 30.36 in - Calm Calm - 0.01 in   Unknown
9:25 AM -1.7 °F -9.7 °F -7.1 °F 78% 30.39 in - Variable 3.5 mph - 0.02 in   Unknown
10:25 AM 2.5 °F - -5.3 °F 70% 30.40 in - Variable 2.3 mph - 0.01 in   Unknown
11:25 AM 3.9 °F - -5.4 °F 65% 30.39 in - Variable 2.3 mph - 0.02 in   Unknown
12:26 PM 6.1 °F - -3.3 °F 65% 30.39 in - Variable 2.3 mph - 0.07 in   Unknown
1:25 PM 7.5 °F -1.1 °F -3.5 °F 61% 30.39 in - Variable 4.6 mph - 0.04 in   Unknown
2:28 PM 9.3 °F - -3.6 °F 56% 30.40 in - Variable 2.3 mph - 0.01 in   Unknown
3:25 PM 5.7 °F - -4.2 °F 64% 30.39 in - Calm Calm - N/A   Unknown
4:26 PM -1.3 °F - -4.9 °F 85% 30.40 in - Calm Calm - 0.01 in   Unknown
5:25 PM -4.4 °F - -6.9 °F 89% 30.40 in - Calm Calm - 0.01 in   Unknown
6:25 PM -9.6 °F - -13.2 °F 84% 30.40 in - Calm Calm - N/A   Unknown
7:25 PM -11.7 °F - -16.1 °F 81% 30.39 in - Calm Calm - 0.01 in   Unknown
8:25 PM -16.2 °F - -20.7 °F 80% 30.38 in - Calm Calm - N/A   Unknown
9:25 PM -16.2 °F - -20.4 °F 81% 30.35 in - Calm Calm - N/A   Unknown
10:25 PM -16.1 °F - -21.6 °F 76% 30.32 in - Calm Calm - 0.06 in   Unknown
11:25 PM -2.6 °F - -6.0 °F 85% 30.29 in - Calm Calm - 0.00 in   Unknown